User: anonymous   Login
Location: Unspecified
(0.0000°N, 0.0000°E)
Time: 14:00:38
(UTC+00:00)
Language:

UWE-4 - Orbit

View from above orbital plane
View from above orbital plane
View from above satellite
View from above satellite

Ground track
Ground track

The orbit data is extracted from the following two-line orbital elements,

1 43880U 18111E   24053.67748169  .00009560  00000-0  64561-3 0  9992
2 43880  97.6216 320.4520 0018908  46.6384 313.6415 15.06658411280021
Epoch (UTC): 22 February 2024 16:15:34
Eccentricity: 0.0018908
inclination: 97.6216°
perigee height: 533 km
apogee height: 559 km
right ascension of ascending node: 320.4520°
argument of perigee: 46.6384°
revolutions per day: 15.06658411
mean anomaly at epoch: 313.6415°
orbit number at epoch: 28002

The dashed part of the orbit path shows where the satellite is in the earth's shadow,  

DLR